Location: Alexandria
(38.8050°N, 77.0470°W)
Time: 08:07:19
(UTC-04:00)

Hubble Space Telescope - Pass Details

Date: 17 March 2018
Orbit: 537 x 541 km, 28.5° (Epoch: 24 June)

Event Time Altitude Azimuth Distance (km) Brightness Sun altitude
Rises 21:07:57 0° 251° (WSW) 2,679 5.2 -22.1°
Reaches altitude 10° 21:11:16 10° 223° (SW) 1,786 3.7 -22.7°
Enters shadow 21:13:04 13° 197° (SSW) 1,597 3.1 -23.0°
